Bar Harbor, ME

10:55 AM EST on December 14, 2019 (GMT -0500)
Hancock County-Bar Harbor

Weather History for KBHB - October, 2019

Change the Weather History Date:

Saturday, October 12, 2019

  Actual Average Record
Temperature  
Mean Temperature 52 °F -  
Max Temperature 55 °F 58 °F 72 °F (1949)
Min Temperature 48 °F 43 °F 25 °F (1956)
Degree Days  
Heating Degree Days 14    
Growing Degree Days 2 (Base 50)    
Moisture  
Dew Point 49 °F    
Average Humidity 93    
Maximum Humidity 100    
Minimum Humidity 86    
Precipitation  
Precipitation 0.07 in - - ()
Sea Level Pressure  
Sea Level Pressure 29.99 in    
Wind  
Wind Speed 11 mph (NNE)    
Max Wind Speed 14 mph    
Max Gust Speed -    
Visibility 9 miles    
Events Rain    
Averages and records for this station are not official NWS values.
T = Trace of Precipitation, MM = Missing Value Source: NWS Daily Summary

Daily Weather History Graph

Daily Weather History Graph

Search for Another Location

Airport or City:

Astronomy

Oct. 12, 2019 Rise Set
Actual Time 6:44 AM EDT 5:54 PM EDT
Civil Twilight 6:15 AM EDT 6:23 PM EDT
Nautical Twilight 5:41 AM EDT 6:57 PM EDT
Astronomical Twilight 5:07 AM EDT 7:31 PM EDT
Moon 5:53 PM EDT (10/12) 5:12 AM EDT (10/12)
Length of Visible Light 12h 08m
Length of Day
11h 10m
Waxing Gibbous, 99% of the Moon is Illuminated
Oct 12
Waxing Gibbous
Oct 13
Full
Oct 21
Last Quarter
Oct 27
New
Nov 4
First Quarter

Hourly Weather History & Observations

Time (EDT) Temp. Dew Point Humidity Pressure Visibility Wind Dir Wind Speed Gust Speed Precip Events Conditions
12:56 AM 50.0 °F 46.9 °F 89% 30.13 in 10.0 mi NNE 11.5 mph - 0.00 in   Overcast
1:21 AM 48.2 °F 46.4 °F 93% 30.11 in 10.0 mi NE 11.5 mph - 0.00 in   Overcast
1:56 AM 48.9 °F 46.9 °F 93% 30.11 in 9.0 mi NNE 10.4 mph - 0.00 in   Overcast
2:23 AM 48.2 °F 48.2 °F 100% 30.09 in 5.0 mi NNE 12.7 mph - 0.01 in Rain Light Rain
2:56 AM 48.0 °F 46.9 °F 96% 30.08 in 4.0 mi NNE 12.7 mph - 0.04 in Rain Light Rain
3:56 AM 48.0 °F 46.9 °F 96% 30.06 in 8.0 mi NNE 13.8 mph - 0.01 in Rain Light Rain
4:56 AM 48.0 °F 46.9 °F 96% 30.04 in 8.0 mi NNE 11.5 mph - 0.02 in   Overcast
5:56 AM 48.9 °F 48.0 °F 97% 30.03 in 10.0 mi NNE 12.7 mph - 0.00 in   Overcast
6:56 AM 48.9 °F 48.0 °F 97% 30.01 in 5.0 mi NNE 8.1 mph - 0.00 in   Overcast
7:21 AM 48.2 °F 48.2 °F 100% 30.01 in 5.0 mi NNE 9.2 mph - N/A   Overcast
7:56 AM 48.9 °F 48.0 °F 97% 30.02 in 5.0 mi NNE 9.2 mph - N/A   Overcast
8:56 AM 50.0 °F 48.9 °F 96% 30.01 in 10.0 mi NNE 10.4 mph - N/A   Overcast
9:35 AM 50.0 °F 48.2 °F 94% 30.01 in 10.0 mi NNE 10.4 mph - N/A   Overcast
9:56 AM 51.1 °F 50.0 °F 96% 30.01 in 4.0 mi NNE 11.5 mph - N/A   Overcast
10:56 AM 52.0 °F 51.1 °F 97% 29.98 in 10.0 mi NNE 11.5 mph - N/A   Overcast
11:33 AM 51.8 °F 51.8 °F 100% 29.96 in 10.0 mi NNE 12.7 mph - N/A   Overcast
11:56 AM 53.1 °F 51.1 °F 93% 29.96 in 10.0 mi NNE 13.8 mph - N/A   Overcast
12:56 PM 53.1 °F 51.1 °F 93% 29.96 in 10.0 mi NNE 10.4 mph - N/A   Overcast
1:56 PM 54.0 °F 51.1 °F 90% 29.94 in 10.0 mi NNE 13.8 mph - N/A   Overcast
2:13 PM 55.4 °F 51.8 °F 88% 29.93 in 10.0 mi North 9.2 mph - N/A   Overcast
2:56 PM 55.0 °F 51.1 °F 86% 29.93 in 10.0 mi NNE 10.4 mph - N/A   Overcast
3:56 PM 55.0 °F 52.0 °F 89% 29.92 in 10.0 mi Variable 6.9 mph - N/A   Overcast
4:17 PM 55.4 °F 51.8 °F 88% 29.92 in 10.0 mi North 9.2 mph - N/A   Overcast
4:56 PM 54.0 °F 51.1 °F 90% 29.92 in 9.0 mi NNE 10.4 mph - N/A   Overcast
5:56 PM 53.1 °F 51.1 °F 93% 29.93 in 10.0 mi NNE 9.2 mph - N/A   Overcast
6:56 PM 53.1 °F 51.1 °F 93% 29.94 in 10.0 mi North 5.8 mph - N/A   Overcast
7:56 PM 52.0 °F 50.0 °F 93% 29.94 in 10.0 mi North 4.6 mph - N/A   Overcast
8:36 PM 51.8 °F 50.0 °F 94% 29.93 in 10.0 mi NNW 4.6 mph - N/A   Overcast
8:56 PM 52.0 °F 48.9 °F 89% 29.94 in 10.0 mi North 5.8 mph - N/A   Overcast
9:56 PM 51.1 °F 48.9 °F 92% 29.94 in 10.0 mi NNW 3.5 mph - N/A   Overcast
11:56 PM 50.0 °F 46.9 °F 89% 29.93 in 10.0 mi NNE 4.6 mph - N/A   Overcast